Location: Dunedin
(45.8670°S, 170.5000°E)
Time: 06:54:48
(UTC+13:00)

H-2A R/B - Pass Details

Date: 24 January 2019
Orbit: 734 x 836 km, 98.3° (Epoch: 18 February)

Event Time Altitude Azimuth Distance (km) Brightness Sun altitude
Rises 22:34:05 0° 161° (SSE) 3,274 5.6 -11.3°
Reaches altitude 10° 22:36:33 10° 154° (SSE) 2,325 4.7 -11.6°
Maximum altitude 22:41:26 44° 82° (E) 1,043 2.3 -12.2°
Enters shadow 22:45:38 13° 12° (NNE) 2,062 3.7 -12.7°
